CGMPW CYTZ-KBUF

Flight info

Callsign CGMPW
Flight time N/A
Altitude 1200
Route VFR FLIGHT FROM TORONTO TO BUFFALO /
Aircraft AS50/L-VGD/A

Departure

Time 2026-05-06 01:23
Airport Billy Bishop Toronto City Airport (CYTZ)

Arrival

Time N/A
Airport Buffalo Niagara International Airport (KBUF)
Time Latitude Longitude Altitude Speed Heading
2026-05-06 01:17 43.63278 -79.39451 253 ft 0 kts 357°
2026-05-06 01:20 43.63284 -79.39450 321 ft 1 kts 350°
2026-05-06 01:20 43.63265 -79.39228 630 ft 68 kts 128°
2026-05-06 01:20 43.62661 -79.38797 663 ft 112 kts 156°
2026-05-06 01:20 43.61986 -79.38210 654 ft 116 kts 136°
2026-05-06 01:21 43.61356 -79.37411 696 ft 132 kts 144°
2026-05-06 01:21 43.60527 -79.36804 451 ft 147 kts 158°
2026-05-06 01:21 43.59828 -79.36020 697 ft 117 kts 135°
2026-05-06 01:21 43.59111 -79.35474 585 ft 126 kts 159°
2026-05-06 01:22 43.58307 -79.35003 372 ft 118 kts 156°
2026-05-06 01:22 43.57540 -79.34594 408 ft 115 kts 158°
2026-05-06 01:22 43.56749 -79.34170 407 ft 129 kts 154°
2026-05-06 01:22 43.55955 -79.33518 475 ft 131 kts 149°
2026-05-06 01:23 43.55226 -79.32868 832 ft 123 kts 147°
2026-05-06 01:23 43.54546 -79.32284 1321 ft 112 kts 143°
2026-05-06 01:23 43.54121 -79.31512 2002 ft 97 kts 118°
2026-05-06 01:23 43.53601 -79.30844 2410 ft 114 kts 140°
2026-05-06 01:24 43.52892 -79.30190 2723 ft 120 kts 150°
2026-05-06 01:24 43.52215 -79.29695 3365 ft 108 kts 145°
2026-05-06 01:24 43.51554 -79.29108 3826 ft 105 kts 141°
2026-05-06 01:24 43.50944 -79.28521 4402 ft 105 kts 148°
2026-05-06 01:25 43.50353 -79.27798 4841 ft 117 kts 142°
2026-05-06 01:25 43.49831 -79.27053 5501 ft 113 kts 134°
2026-05-06 01:25 43.49386 -79.26180 6073 ft 108 kts 146°
2026-05-06 01:25 43.48893 -79.25404 6576 ft 110 kts 152°
2026-05-06 01:26 43.48317 -79.24747 6968 ft 111 kts 164°
2026-05-06 01:26 43.47642 -79.24171 7102 ft 117 kts 176°
2026-05-06 01:26 43.46848 -79.23597 6741 ft 140 kts 173°
2026-05-06 01:26 43.45957 -79.23023 6507 ft 140 kts 175°
2026-05-06 01:27 43.45082 -79.22469 6378 ft 136 kts 176°
2026-05-06 01:27 43.44215 -79.21994 6214 ft 136 kts 178°
2026-05-06 01:27 43.43310 -79.21508 5890 ft 142 kts 177°
2026-05-06 01:27 43.42370 -79.21078 5481 ft 146 kts 180°
2026-05-06 01:28 43.41334 -79.20751 4973 ft 161 kts 173°
2026-05-06 01:28 43.40253 -79.20175 3673 ft 179 kts 167°
2026-05-06 01:28 43.39111 -79.19606 3194 ft 161 kts 165°
2026-05-06 01:28 43.38116 -79.19191 3208 ft 141 kts 167°
2026-05-06 01:29 43.37203 -79.18772 3181 ft 136 kts 161°
2026-05-06 01:29 43.36286 -79.18332 2983 ft 141 kts 166°